[[{"header":{"parameterUnit":"m.s-1","parameterCategory":1,"la1":30.2992,"la2":30.254,"lo1":-89.0895,"lo2":-89.0443,"dy":0.0025,"dx":0.0025,"nx":19,"ny":19,"refTime":"2026-04-29T03:00:00:Z","depth":0,"parameterNumber":2,"parameterNumberName":"U-component_of_WINDS"},"data":[0,0,0,-4.514,-4.514,-4.5126,-4.5126,-4.5104,-4.5104,0,0,0,0,0,0,0,0,0,0,0,-4.5144,-4.5143,-4.514,-4.514,-4.5126,-4.5126,-4.5104,-4.5104,0,0,0,0,0,0,0,0,0,0,0,-4.5144,-4.5143,-4.5143,-4.514,-4.5126,-4.5126,-4.5104,-4.5116,0,0,0,0,0,0,0,0,0,0,-4.513,-4.5132,-4.5144,-4.5143,-4.514,-4.5126,-4.5126,-4.5116,-4.5115,-4.5109,0,-4.5105,0,-4.5104,-4.5102,-4.5102,0,0,0,-4.514,-4.5133,-4.5131,-4.5143,-4.514,-4.5126,-4.5133,-4.5116,-4.5114,-4.5107,-4.5104,-4.5104,-4.5104,-4.5102,-4.5102,-4.5069,-4.5069,0,0,-4.5141,-4.514,-4.5132,-4.513,-4.5133,-4.5133,-4.5132,-4.5115,-4.5111,-4.5104,-4.5103,-4.5103,-4.5102,-4.5102,-4.5069,-4.5069,0,0,0,-4.5143,-4.5141,-4.5138,-4.513,-4.5128,-4.5133,-4.5132,-4.5112,-4.5111,-4.5103,-4.5103,-4.5102,-4.5101,-4.5069,-4.5069,-4.506,0,0,0,-4.5144,-4.5142,-4.5139,-4.5138,-4.5129,-4.512,-4.5129,-4.5112,-4.5111,-4.5103,-4.5102,-4.5101,-4.507,-4.5069,-4.506,-4.5054,0,0,0,-4.5145,-4.5142,-4.514,-4.5138,-4.5132,-4.5121,-4.5119,-4.5112,-4.511,-4.5102,-4.5101,-4.507,-4.5069,-4.5061,-4.5055,-4.5044,0,0,0,-4.5145,-4.5131,-4.514,-4.5124,-4.5132,-4.5116,-4.5119,-4.5107,-4.5098,-4.5101,-4.507,-4.5069,-4.5061,-4.5056,-4.5045,-4.5034,-4.503,0,0,-4.5127,-4.5129,-4.512,-4.5127,-4.5109,-4.5118,-4.5098,-4.509,-4.509,-4.5076,-4.5075,-4.506,-4.5056,-4.5045,-4.501,-4.5006,0,0,0,-4.5114,-4.5107,-4.5102,-4.5095,-4.509,-4.5085,-4.5081,-4.5078,-4.5066,-4.5083,-4.5054,-4.5051,-4.5045,-4.5039,-4.5037,-4.503,-4.5067,-4.5067,-4.5067,-4.5085,-4.5086,-4.5071,-4.507,-4.5063,-4.5059,-4.5053,-4.5048,-4.5051,-4.5044,-4.5039,-4.5018,-4.5012,-4.501,-4.5003,-4.5035,-4.5035,-4.5035,-4.5035,-4.5056,-4.5046,-4.5052,-4.5038,-4.5039,-4.5027,-4.5023,-4.5026,-4.5013,-4.5022,-4.5017,-4.5024,-4.5006,-4.5,-4.5034,-4.5035,-4.5035,-4.5035,-4.5035,-4.5036,-4.5031,-4.5029,-4.5019,-4.501,-4.501,-4.4998,-4.5,-4.5001,-4.4995,-4.4989,-4.4989,-4.4988,-4.4993,-4.4993,-4.4993,-4.4993,-4.4993,-4.4993,-4.5015,-4.5013,-4.5004,-4.4998,-4.4993,-4.4987,-4.4983,-4.4978,-4.4972,-4.4974,-4.4974,-4.4976,-4.5005,-4.5011,-4.4991,-4.4992,-4.4992,-4.4992,-4.4992,-4.4982,-4.499,-4.4976,-4.4971,-4.4963,-4.4954,-4.4957,-4.4946,-4.4942,-4.4935,-4.4939,-4.4962,-4.4963,-4.4965,-4.497,-4.4941,-4.4941,-4.4941,-4.4941,-4.4963,-4.4965,-4.495,-4.4943,-4.4935,-4.4936,-4.4918,-4.4915,-4.4913,-4.491,-4.4915,-4.4922,-4.4925,-4.4924,-4.4928,-4.4932,-4.4893,-4.4893,-4.4893,-4.4942,-4.4944,-4.4928,-4.4928,-4.4922,-4.4917,-4.4899,-4.4888,-4.4887,-4.4891,-4.4907,-4.4909,-4.4921,-4.4925,-4.4927,-4.4932,-4.4941,0,0]},{"header":{"parameterUnit":"m.s-1","parameterCategory":1,"la1":30.2992,"la2":30.254,"lo1":-89.0895,"lo2":-89.0443,"dy":0.0025,"dx":0.0025,"nx":19,"ny":19,"refTime":"2026-04-29T03:00:00:Z","depth":0,"parameterNumber":3,"parameterNumberName":"V-component_of_WINDS"},"data":[0,0,0,-4.6349,-4.6352,-4.6497,-4.6498,-4.6683,-4.6685,0,0,0,0,0,0,0,0,0,0,0,-4.631,-4.6311,-4.6349,-4.6353,-4.6497,-4.6498,-4.6683,-4.6685,0,0,0,0,0,0,0,0,0,0,0,-4.6309,-4.6311,-4.6312,-4.6353,-4.6497,-4.6498,-4.6683,-4.6573,0,0,0,0,0,0,0,0,0,0,-4.6432,-4.6399,-4.631,-4.6312,-4.6354,-4.6497,-4.6498,-4.6567,-4.6579,-4.6619,0,-4.6658,0,-4.6675,-4.6698,-4.6699,0,0,0,-4.6349,-4.6389,-4.6425,-4.6313,-4.6356,-4.6497,-4.6431,-4.6574,-4.6588,-4.6635,-4.666,-4.6667,-4.6678,-4.6699,-4.67,-4.6947,-4.6949,0,0,-4.6341,-4.6336,-4.6416,-4.6435,-4.6416,-4.6427,-4.6436,-4.6582,-4.6608,-4.6661,-4.6672,-4.6681,-4.67,-4.6702,-4.6946,-4.6948,0,0,0,-4.6321,-4.6331,-4.6364,-4.6427,-4.6453,-4.6431,-4.6441,-4.6601,-4.6613,-4.6673,-4.6683,-4.6701,-4.6704,-4.6945,-4.6947,-4.7007,0,0,0,-4.6316,-4.6319,-4.6361,-4.6359,-4.6451,-4.653,-4.6457,-4.6603,-4.662,-4.6682,-4.6702,-4.6706,-4.6943,-4.6946,-4.7002,-4.7035,0,0,0,-4.6299,-4.6317,-4.6339,-4.6358,-4.6421,-4.6528,-4.6547,-4.6606,-4.6626,-4.6699,-4.6706,-4.6942,-4.6945,-4.6998,-4.7028,-4.7098,0,0,0,-4.6278,-4.6389,-4.634,-4.6468,-4.642,-4.6566,-4.6546,-4.6655,-4.6725,-4.6703,-4.6943,-4.6946,-4.6997,-4.7024,-4.7093,-4.7154,-4.718,0,0,-4.6415,-4.6405,-4.6481,-4.6441,-4.6595,-4.6544,-4.6705,-4.6772,-4.6782,-4.6891,-4.6897,-4.7004,-4.7027,-4.7097,-4.733,-4.735,0,0,0,-4.6522,-4.6576,-4.6618,-4.6687,-4.6743,-4.6794,-4.6838,-4.6863,-4.6956,-4.6839,-4.7049,-4.7063,-4.7104,-4.7133,-4.7151,-4.7185,-4.6961,-4.696,-4.696,-4.6705,-4.6716,-4.6841,-4.6869,-4.6936,-4.6982,-4.7035,-4.7076,-4.7065,-4.7115,-4.7146,-4.7287,-4.7321,-4.7334,-4.737,-4.7181,-4.7181,-4.7181,-4.7182,-4.6904,-4.6981,-4.6968,-4.7084,-4.7094,-4.719,-4.7239,-4.7228,-4.7317,-4.7263,-4.73,-4.7237,-4.7356,-4.7388,-4.7186,-4.7185,-4.7185,-4.7184,-4.7184,-4.7022,-4.7061,-4.7093,-4.7195,-4.7271,-4.7295,-4.7384,-4.7389,-4.7394,-4.743,-4.7463,-4.7462,-4.7459,-4.7446,-4.7447,-4.7447,-4.7448,-4.7448,-4.7448,-4.7131,-4.7166,-4.7241,-4.7313,-4.7359,-4.7419,-4.7468,-4.7512,-4.7561,-4.7557,-4.7558,-4.754,-4.7368,-4.7322,-4.7456,-4.7454,-4.7453,-4.7453,-4.7452,-4.7324,-4.7282,-4.7398,-4.7444,-4.753,-4.7605,-4.7613,-4.7702,-4.7739,-4.7782,-4.7758,-4.7631,-4.7619,-4.7606,-4.7568,-4.7757,-4.7757,-4.7757,-4.7757,-4.7421,-4.7419,-4.7539,-4.7612,-4.7685,-4.7705,-4.7833,-4.7873,-4.7906,-4.7929,-4.7904,-4.7855,-4.7841,-4.7838,-4.782,-4.7784,-4.8024,-4.8025,-4.8025,-4.7539,-4.7544,-4.7653,-4.769,-4.7758,-4.7816,-4.7936,-4.8018,-4.8047,-4.8036,-4.7947,-4.7936,-4.7858,-4.7833,-4.7815,-4.7785,-4.7721,0,0]}]]